Location: Asheville, NC
(35.6000°N, 82.5500°W)
Time: 23:44:19
(UTC-04:00)

XW-2C - Pass Details

Date: 11 January 2018
Orbit: 509 x 531 km, 97.5° (Epoch: 17 June)

Event Time Altitude Azimuth Distance (km) Brightness Sun altitude
Rises 06:40:59 0° 9° (N) 2,653 ? -11.9°
Reaches altitude 10° 06:43:07 10° 7° (N) 1,757 ? -11.5°
Maximum altitude 06:46:52 71° 284° (WNW) 549 ? -10.8°
Drops below altitude 10° 06:50:36 10° 200° (SSW) 1,731 ? -10.1°
Sets 06:52:40 0° 198° (SSW) 2,609 ? -9.7°
